TimeCDT,TemperatureF,Dew PointF,Humidity,Sea Level PressureIn,VisibilityMPH,Wind Direction,Wind SpeedMPH,Gust SpeedMPH,PrecipitationIn,Events,Conditions,WindDirDegrees,DateUTC
12:15 AM,67.6,63.0,85,30.05,10.0,South,4.6,-,N/A,,Clear,170,2013-07-25 05:15:00
12:35 AM,67.3,63.0,86,30.04,10.0,SSE,3.5,-,N/A,,Clear,150,2013-07-25 05:35:00
12:55 AM,67.1,63.1,87,30.06,10.0,Calm,Calm,-,N/A,,Clear,0,2013-07-25 05:55:00
1:15 AM,67.1,63.5,88,30.06,10.0,SE,3.5,-,N/A,,Scattered Clouds,130,2013-07-25 06:15:00
1:35 AM,67.1,63.5,88,30.06,10.0,Calm,Calm,-,N/A,,Scattered Clouds,0,2013-07-25 06:35:00
1:55 AM,67.3,63.5,88,30.06,10.0,South,3.5,-,N/A,,Mostly Cloudy,170,2013-07-25 06:55:00
2:15 AM,67.1,63.5,88,30.05,10.0,SSE,3.5,-,N/A,,Mostly Cloudy,150,2013-07-25 07:15:00
2:35 AM,66.7,63.5,89,30.05,10.0,SE,3.5,-,N/A,,Scattered Clouds,140,2013-07-25 07:35:00
2:55 AM,66.7,63.3,89,30.04,10.0,SE,3.5,-,N/A,,Scattered Clouds,140,2013-07-25 07:55:00
3:15 AM,66.4,63.5,90,30.04,10.0,SE,3.5,-,N/A,,Scattered Clouds,130,2013-07-25 08:15:00
3:35 AM,67.1,63.5,88,30.05,10.0,Calm,Calm,-,N/A,,Mostly Cloudy,0,2013-07-25 08:35:00
3:55 AM,67.1,63.7,89,30.05,10.0,Calm,Calm,-,N/A,,Overcast,0,2013-07-25 08:55:00
4:15 AM,67.1,63.5,88,30.05,10.0,SSE,3.5,-,N/A,,Mostly Cloudy,160,2013-07-25 09:15:00
4:35 AM,67.1,63.9,89,30.05,10.0,South,4.6,-,N/A,,Mostly Cloudy,190,2013-07-25 09:35:00
4:55 AM,68.0,63.5,85,30.04,10.0,South,4.6,-,N/A,,Mostly Cloudy,170,2013-07-25 09:55:00
5:15 AM,67.5,63.5,87,30.05,10.0,ESE,3.5,-,N/A,,Mostly Cloudy,110,2013-07-25 10:15:00
5:35 AM,67.1,63.7,89,30.04,10.0,SSE,4.6,-,N/A,,Mostly Cloudy,150,2013-07-25 10:35:00
5:55 AM,68.0,63.5,85,30.05,10.0,Calm,Calm,-,N/A,Rain,Light Rain,0,2013-07-25 10:55:00
6:15 AM,68.0,63.9,87,30.04,10.0,SSE,6.9,-,0.01,Rain,Light Rain,150,2013-07-25 11:15:00
6:35 AM,67.3,63.5,88,30.04,10.0,SSE,6.9,-,0.01,,Mostly Cloudy,150,2013-07-25 11:35:00
6:55 AM,67.5,63.1,86,30.04,10.0,SSE,5.8,-,0.01,,Mostly Cloudy,160,2013-07-25 11:55:00
7:15 AM,67.5,63.0,85,30.04,10.0,SSE,8.1,-,N/A,,Scattered Clouds,150,2013-07-25 12:15:00
7:35 AM,67.8,63.7,87,30.05,10.0,SSE,5.8,-,N/A,,Scattered Clouds,160,2013-07-25 12:35:00
7:55 AM,68.5,63.9,85,30.05,10.0,North,-9999.0,-,N/A,,Overcast,0,2013-07-25 12:55:00
8:15 AM,69.4,64.2,83,30.05,10.0,North,-9999.0,-,N/A,,Overcast,0,2013-07-25 13:15:00
8:35 AM,70.3,64.9,83,30.04,10.0,North,-9999.0,-,N/A,,Mostly Cloudy,0,2013-07-25 13:35:00
8:55 AM,71.6,64.8,79,30.04,10.0,South,5.8,-,N/A,,Mostly Cloudy,180,2013-07-25 13:55:00
9:15 AM,72.9,64.6,75,30.04,10.0,North,-9999.0,-,N/A,,Mostly Cloudy,0,2013-07-25 14:15:00
9:35 AM,72.1,64.2,76,30.04,10.0,North,-9999.0,-,N/A,,Mostly Cloudy,0,2013-07-25 14:35:00
9:55 AM,75.0,66.0,73,30.04,10.0,North,-9999.0,-,N/A,,Mostly Cloudy,0,2013-07-25 14:55:00
10:15 AM,76.5,66.0,70,30.03,10.0,North,-9999.0,-,N/A,,Mostly Cloudy,0,2013-07-25 15:15:00
10:35 AM,77.0,65.8,68,30.02,10.0,North,-9999.0,-,N/A,,Clear,0,2013-07-25 15:35:00
10:55 AM,77.0,66.2,69,30.02,10.0,SSE,6.9,-,N/A,,Clear,160,2013-07-25 15:55:00
11:15 AM,77.0,66.4,70,30.02,10.0,SSE,6.9,-,N/A,,Clear,160,2013-07-25 16:15:00
11:35 AM,76.5,66.4,71,30.02,10.0,North,-9999.0,-,N/A,,Scattered Clouds,0,2013-07-25 16:35:00
11:55 AM,76.1,66.4,72,30.02,10.0,North,-9999.0,-,N/A,,Scattered Clouds,0,2013-07-25 16:55:00
12:15 PM,77.0,66.4,70,30.02,10.0,North,-9999.0,-,N/A,,Mostly Cloudy,0,2013-07-25 17:15:00
12:35 PM,77.2,66.9,71,30.02,10.0,North,-9999.0,-,N/A,,Overcast,0,2013-07-25 17:35:00
12:55 PM,77.9,66.7,68,30.02,10.0,North,-9999.0,-,N/A,,Scattered Clouds,0,2013-07-25 17:55:00
1:15 PM,79.0,66.4,65,30.03,10.0,North,-9999.0,-,N/A,,Clear,0,2013-07-25 18:15:00
1:35 PM,78.6,65.1,63,30.03,10.0,North,-9999.0,-,N/A,,Clear,0,2013-07-25 18:35:00
1:55 PM,78.4,65.1,63,30.03,10.0,South,9.2,-,N/A,,Clear,190,2013-07-25 18:55:00
2:15 PM,80.1,65.8,62,30.02,10.0,SSW,10.4,-,N/A,,Clear,200,2013-07-25 19:15:00
2:35 PM,81.0,65.8,60,30.02,10.0,South,12.7,18.4,N/A,,Scattered Clouds,180,2013-07-25 19:35:00
2:55 PM,81.5,65.8,59,30.02,10.0,South,13.8,-,N/A,,Scattered Clouds,170,2013-07-25 19:55:00
3:15 PM,81.7,65.3,57,30.02,10.0,SSW,10.4,-,N/A,,Clear,200,2013-07-25 20:15:00
3:35 PM,82.0,63.3,53,30.01,10.0,South,13.8,17.3,N/A,,Clear,190,2013-07-25 20:35:00
3:55 PM,82.8,63.1,51,30.01,10.0,SSW,13.8,19.6,N/A,,Clear,210,2013-07-25 20:55:00
4:15 PM,82.9,65.1,55,30.00,10.0,South,11.5,17.3,N/A,,Clear,190,2013-07-25 21:15:00
4:35 PM,81.9,65.1,57,30.00,10.0,SSW,11.5,21.9,N/A,,Scattered Clouds,200,2013-07-25 21:35:00
4:55 PM,80.4,62.6,54,30.00,10.0,South,15.0,23.0,N/A,,Mostly Cloudy,190,2013-07-25 21:55:00
5:15 PM,79.2,63.5,59,30.00,10.0,South,12.7,16.1,N/A,,Overcast,190,2013-07-25 22:15:00
5:35 PM,78.8,65.8,64,30.00,10.0,South,12.7,-,N/A,,Overcast,170,2013-07-25 22:35:00
5:55 PM,79.0,66.4,65,30.00,10.0,South,13.8,-,N/A,,Overcast,170,2013-07-25 22:55:00
6:15 PM,80.6,65.1,59,30.00,10.0,SSE,13.8,17.3,N/A,,Overcast,160,2013-07-25 23:15:00
6:35 PM,79.0,63.1,58,30.00,10.0,South,11.5,-,N/A,,Mostly Cloudy,180,2013-07-25 23:35:00
6:55 PM,77.4,63.0,61,29.99,10.0,South,13.8,-,N/A,,Scattered Clouds,190,2013-07-25 23:55:00
7:15 PM,77.0,62.1,60,30.01,10.0,SSW,10.4,-,N/A,,Clear,200,2013-07-26 00:15:00
7:35 PM,76.1,62.8,63,30.01,10.0,South,10.4,-,N/A,,Clear,190,2013-07-26 00:35:00
7:55 PM,75.2,63.7,67,30.02,10.0,SSW,6.9,-,N/A,,Mostly Cloudy,200,2013-07-26 00:55:00
8:15 PM,74.3,64.9,72,30.01,10.0,SSW,5.8,-,N/A,Rain,Light Rain,200,2013-07-26 01:15:00
8:35 PM,73.6,65.3,75,30.00,10.0,South,5.8,-,N/A,,Overcast,190,2013-07-26 01:35:00
8:55 PM,73.4,65.3,76,30.00,10.0,Calm,Calm,-,N/A,,Overcast,0,2013-07-26 01:55:00
9:15 PM,72.1,66.6,83,30.01,10.0,NE,4.6,-,N/A,,Overcast,40,2013-07-26 02:15:00
9:35 PM,72.0,66.9,84,30.02,10.0,Calm,Calm,-,N/A,,Overcast,0,2013-07-26 02:35:00
9:55 PM,71.6,67.1,86,30.02,10.0,NE,3.5,-,N/A,,Overcast,50,2013-07-26 02:55:00
10:15 PM,71.6,66.4,84,30.02,10.0,Calm,Calm,-,N/A,,Mostly Cloudy,0,2013-07-26 03:15:00
10:35 PM,70.7,66.7,87,30.02,10.0,Calm,Calm,-,N/A,,Scattered Clouds,0,2013-07-26 03:35:00
10:55 PM,69.8,66.2,88,30.02,10.0,Calm,Calm,-,N/A,,Scattered Clouds,0,2013-07-26 03:55:00
11:15 PM,70.2,66.2,87,30.02,10.0,Calm,Calm,-,N/A,,Scattered Clouds,0,2013-07-26 04:15:00
11:35 PM,68.7,65.8,90,30.02,10.0,ENE,3.5,-,N/A,,Scattered Clouds,70,2013-07-26 04:35:00
11:55 PM,69.4,66.4,90,30.02,10.0,Calm,Calm,-,N/A,,Scattered Clouds,0,2013-07-26 04:55:00